Probability
13 29 58 68 68 65 68 58 52 45 42 35 32 23 26 32 35 39 29 29 26 26 26 23 23 19 16 10 10 3 3 3 3 3 3 3 3 3 3 3 3 0 0
16 45 58 61 65 65 65 52 52 52 39 29 29 26 26 29 29 35 29 26 26 29 29 26 19 16 13 10 3 3 3 3 0 0 0 0 3 3 3 3 3 0 0
26 48 58 65 68 61 58 48 48 42 45 35 29 23 19 23 26 23 26 26 32 23 26 23 23 16 13 10 3 0 0 0 0 0 0 0 0 6 6 3 3 0 0
32 45 55 61 65 58 52 45 45 39 39 32 29 26 19 16 23 23 26 29 32 23 19 19 16 10 6 6 3 0 0 3 3 0 0 0 0 3 6 6 3 0 3
35 35 52 52 48 48 45 45 42 39 32 35 26 26 23 19 16 19 16 23 23 19 13 13 10 10 10 10 3 0 0 0 0 0 0 0 0 3 3 3 0 0 0
26 35 45 48 48 45 48 52 39 32 29 26 26 19 16 16 19 19 19 13 16 16 13 6 10 10 10 10 6 0 0 0 0 0 0 0 0 0 10 0 0 3 0
26 32 39 45 45 45 39 42 35 29 29 23 26 19 16 16 19 26 16 16 16 10 6 6 10 10 10 6 3 3 3 0 0 0 0 0 0 0 3 0 0 3 3
23 23 32 39 39 35 32 32 32 26 23 23 19 19 19 19 19 23 13 16 16 6 6 6 10 6 6 3 3 3 0 0 0 0 0 0 0 0 0 3 6 3 6
16 16 16 19 23 26 26 26 23 26 26 26 26 29 26 23 23 16 16 16 16 6 6 6 0 3 3 3 3 3 0 0 0 0 0 0 0 0 0 0 0 3 3
6 13 13 10 16 16 16 13 13 13 23 26 26 19 13 16 23 19 16 16 16 13 10 0 0 3 3 3 3 0 0 0 0 0 0 0 0 0 0 0 0 0 0
0 6 6 6 6 13 13 13 13 10 10 10 13 13 3 6 6 6 3 6 3 3 0 0 0 0 0 0 0 0 0 0 0 0 0 0 0 0 0 0 0 0 0
3 3 3 3 3 6 6 3 3 6 3 0 0 0 0 3 3 3 0 0 0 0 0 0 0 0 0 0 0 0 0 0 0 0 0 0 0 3 0 0 0 0 0
3 3 3 3 0 3 3 3 3 3 3 0 0 0 0 3 3 3 0 0 0 0 0 0 0 0 0 0 0 0 0 0 0 0 0 0 0 0 0 0 0 0 0
3 3 3 0 0 3 3 3 3 3 0 0 0 0 0 0 0 3 0 0 0 0 0 0 0 0 0 0 0 0 0 0 0 0 0 0 0 0 0 3 0 0 0
0 3 3 0 0 0 0 0 3 3 0 0 0 0 0 0 0 0 0 0 0 0 0 0 0 0 0 0 0 0 0 0 0 0 0 0 0 0 0 0 0 0 0
0 3 3 0 0 0 0 0 0 0 0 0 0 0 0 0 0 0 0 0 0 0 0 0 0 0 0 0 0 0 0 0 0 0 0 0 0 0 0 0 0 0 0
0 0 3 0 0 0 0 0 0 0 0 0 0 0 0 0 0 0 0 0 0 0 0 0 0 0 0 0 0 0 0 0 0 0 0 0 0 0 0 0 0 0 0
0 0 0 0 0 0 0 0 0 0 0 0 0 0 0 0 0 0 0 0 0 0 0 0 0 0 0 0 0 0 0 0 0 0 0 0 0 0 0 0 0 0 0
0 0 0 0 0 0 0 0 0 0 0 0 0 0 0 0 0 0 0 0 0 0 0 0 0 0 0 0 0 0 0 0 0 0 0 0 0 0 0 0 0 0 0
0 0 0 0 0 0 0 0 0 0 0 0 0 0 0 0 0 0 0 0 0 0 0 0 0 0 0 0 0 0 0 0 0 0 0 0 0 0 0 0 0 0 0
0 0 0 0 0 0 0 0 0 0 0 0 0 0 0 0 0 0 0 0 0 0 0 0 0 0 0 0 0 0 0 0 0 0 0 0 0 0 0 0 0 0 0
0 0 0 0 0 0 0 0 0 0 0 0 0 0 0 0 0 0 0 0 0 0 0 0 0 0 0 0 0 0 0 0 0 0 0 0 0 0 0 0 0 0 0
0 0 0 0 0 0 0 0 0 0 0 0 0 0 0 0 0 0 0 0 0 0 0 0 0 0 0 0 0 0 0 0 0 0 0 0 0 0 0 0 0 0 0
0 0 0 0 0 0 0 0 0 0 0 0 0 0 0 0 0 0 0 0 0 0 0 0 0 0 0 0 0 0 0 0 0 0 0 0 0 0 0 0 0 0 0
0 0 0 0 0 0 0 0 0 0 0 0 0 0 0 0 0 0 0 0 0 0 0 0 0 0 0 0 0 0 0 0 0 0 0 0 0 0 0 0 0 0 0
0 0 0 0 0 0 0 0 0 0 0 0 0 0 0 0 0 0 0 0 0 0 0 0 0 0 0 0 0 0 0 0 0 0 0 0 0 0 0 0 0 0 0
Height
5865 5865 5867 5867 5868 5869 5869 5870 5871 5872 5872 5873 5874 5874 5874 5875 5875 5875 5875 5875 5874 5874 5874 5873 5873 5873 5873 5872 5872 5871 5871 5870 5870 5869 5868 5867 5866 5866 5865 5864 5863 5862 5862
5861 5863 5864 5865 5866 5866 5867 5868 5869 5870 5871 5871 5872 5873 5873 5873 5873 5873 5873 5873 5873 5873 5873 5872 5872 5872 5871 5871 5870 5870 5869 5869 5868 5867 5866 5865 5865 5864 5863 5862 5861 5860 5859
5857 5859 5860 5862 5863 5864 5865 5866 5867 5868 5868 5869 5870 5871 5871 5871 5872 5872 5872 5872 5872 5871 5871 5871 5870 5870 5870 5869 5869 5868 5867 5867 5866 5865 5864 5863 5862 5862 5861 5860 5859 5858 5857
5853 5855 5856 5858 5860 5861 5862 5863 5864 5865 5866 5867 5868 5869 5869 5869 5870 5870 5870 5870 5870 5870 5869 5869 5869 5868 5868 5867 5867 5866 5865 5865 5864 5863 5862 5861 5860 5859 5858 5857 5856 5855 5854
5848 5850 5852 5854 5856 5857 5858 5860 5861 5862 5863 5864 5865 5866 5867 5867 5867 5868 5868 5868 5868 5867 5867 5867 5866 5866 5866 5865 5865 5864 5863 5862 5861 5861 5860 5859 5858 5857 5856 5855 5854 5853 5852
5843 5845 5848 5850 5851 5853 5855 5856 5857 5859 5860 5861 5862 5863 5864 5864 5865 5865 5865 5865 5865 5865 5865 5864 5864 5864 5863 5863 5862 5861 5860 5860 5859 5858 5857 5856 5855 5854 5853 5852 5851 5850 5849
5837 5840 5842 5845 5847 5849 5850 5852 5853 5855 5856 5858 5859 5860 5860 5861 5862 5862 5862 5862 5862 5862 5862 5862 5861 5861 5861 5860 5859 5858 5857 5856 5855 5855 5854 5853 5852 5851 5850 5849 5848 5847 5846
5831 5834 5837 5839 5842 5844 5846 5848 5849 5851 5852 5854 5855 5856 5857 5858 5858 5859 5859 5859 5859 5859 5859 5859 5858 5858 5857 5857 5856 5855 5854 5853 5852 5851 5850 5849 5849 5848 5847 5846 5844 5843 5842
5824 5828 5831 5834 5837 5839 5841 5843 5845 5846 5848 5850 5851 5852 5853 5854 5855 5855 5856 5856 5856 5856 5856 5856 5855 5855 5854 5853 5852 5851 5850 5849 5848 5848 5847 5846 5845 5844 5843 5842 5841 5840 5839
5818 5821 5825 5828 5831 5834 5836 5838 5840 5842 5843 5845 5846 5848 5849 5850 5851 5851 5852 5852 5853 5853 5852 5852 5852 5851 5851 5850 5849 5848 5847 5846 5845 5844 5843 5842 5841 5840 5839 5838 5837 5836 5835
5811 5815 5818 5821 5824 5827 5830 5832 5834 5836 5838 5840 5842 5843 5845 5846 5846 5847 5848 5848 5849 5849 5849 5848 5848 5848 5847 5846 5845 5844 5843 5842 5841 5840 5839 5838 5837 5836 5835 5834 5833 5832 5831
5804 5808 5812 5815 5818 5820 5823 5826 5828 5831 5833 5835 5837 5838 5840 5841 5842 5843 5843 5844 5844 5845 5845 5844 5844 5843 5843 5842 5841 5840 5839 5838 5837 5836 5835 5834 5833 5832 5831 5830 5829 5828 5827
5796 5801 5805 5808 5811 5814 5817 5820 5823 5825 5827 5829 5831 5833 5835 5836 5837 5838 5839 5839 5840 5840 5840 5840 5840 5839 5838 5837 5837 5836 5835 5834 5833 5832 5831 5830 5829 5828 5827 5826 5825 5823 5822
5788 5793 5798 5801 5804 5808 5811 5814 5817 5819 5822 5824 5826 5828 5829 5831 5832 5833 5834 5834 5835 5835 5835 5835 5835 5834 5834 5833 5832 5831 5830 5829 5828 5827 5826 5825 5824 5823 5822 5821 5820 5818 5817
5782 5786 5790 5795 5798 5802 5805 5808 5811 5813 5816 5818 5821 5822 5824 5825 5826 5827 5828 5829 5830 5830 5830 5830 5829 5829 5829 5828 5827 5826 5825 5824 5824 5823 5821 5820 5819 5818 5817 5816 5814 5813 5811
5775 5779 5783 5788 5791 5795 5798 5801 5804 5807 5809 5812 5815 5817 5818 5819 5821 5821 5822 5823 5824 5824 5824 5824 5824 5824 5823 5822 5822 5821 5820 5819 5818 5817 5816 5815 5814 5813 5812 5810 5809 5807 5806
5768 5773 5777 5781 5784 5788 5791 5795 5798 5800 5803 5806 5808 5810 5812 5813 5815 5816 5816 5817 5818 5818 5818 5818 5818 5818 5817 5817 5816 5815 5814 5813 5812 5812 5810 5809 5808 5807 5806 5804 5803 5801 5799
5762 5766 5770 5774 5778 5781 5785 5788 5791 5793 5796 5800 5802 5804 5805 5807 5808 5809 5810 5811 5811 5812 5812 5812 5812 5812 5811 5810 5809 5808 5808 5807 5806 5805 5804 5803 5802 5801 5799 5798 5796 5794 5793
5756 5760 5764 5767 5771 5774 5778 5782 5785 5787 5790 5793 5795 5797 5799 5800 5801 5802 5803 5804 5804 5805 5805 5805 5805 5805 5804 5803 5802 5802 5801 5800 5800 5798 5797 5796 5795 5794 5792 5790 5789 5787 5785
5750 5754 5758 5761 5764 5768 5772 5775 5778 5781 5784 5786 5789 5791 5792 5793 5794 5795 5796 5797 5797 5798 5798 5798 5797 5797 5797 5796 5795 5794 5794 5793 5792 5791 5790 5789 5787 5786 5784 5783 5781 5779 5777
5745 5749 5753 5756 5759 5762 5765 5768 5772 5775 5777 5780 5782 5784 5785 5786 5787 5788 5789 5789 5790 5790 5790 5790 5790 5790 5789 5789 5788 5787 5786 5786 5785 5783 5782 5781 5779 5778 5776 5775 5773 5771 5769
5740 5744 5748 5750 5753 5756 5759 5762 5764 5768 5770 5773 5775 5777 5778 5778 5779 5780 5781 5781 5782 5782 5782 5782 5782 5781 5781 5781 5780 5780 5779 5778 5777 5775 5773 5772 5771 5769 5767 5766 5764 5762 5760
5735 5739 5742 5744 5747 5749 5752 5755 5758 5760 5763 5766 5768 5769 5770 5771 5772 5772 5773 5773 5773 5774 5774 5774 5774 5773 5773 5773 5772 5772 5770 5770 5768 5767 5765 5763 5761 5760 5758 5756 5754 5752 5750
5730 5733 5736 5738 5741 5743 5746 5748 5751 5753 5756 5758 5760 5761 5762 5763 5764 5764 5764 5765 5765 5765 5766 5765 5765 5765 5764 5764 5763 5762 5761 5760 5759 5758 5756 5754 5752 5750 5748 5746 5744 5742 5740
5724 5727 5730 5733 5735 5738 5740 5742 5744 5746 5749 5751 5752 5753 5753 5754 5755 5756 5756 5756 5757 5757 5757 5756 5756 5755 5755 5754 5753 5753 5751 5750 5749 5748 5747 5745 5742 5740 5738 5736 5733 5731 5729
5719 5722 5725 5727 5729 5731 5733 5735 5737 5739 5741 5743 5744 5745 5745 5746 5747 5747 5748 5748 5748 5748 5747 5747 5746 5745 5745 5744 5744 5742 5741 5740 5739 5737 5736 5734 5732 5730 5727 5725 5722 5720 5717
Wind_Speed
16 15 14 12 12 12 11 11 11 10 10 9 9 8 7 7 7 7 7 7 7 6 6 6 6 6 6 6 6 7 8 8 9 9 10 10 10 11 11 12 12 13 13
19 17 16 15 14 13 13 13 12 12 11 11 10 9 9 8 8 8 8 8 8 8 8 7 8 8 8 8 8 8 9 10 10 10 11 11 12 12 12 12 13 14 14
21 20 19 17 16 15 15 14 14 14 13 13 12 11 11 10 10 10 10 9 9 9 9 9 9 9 9 9 9 10 10 11 12 12 12 13 13 13 13 13 14 14 15
24 23 21 20 19 18 17 16 16 15 15 15 14 13 12 12 11 11 11 11 10 10 11 11 11 10 10 11 11 11 11 12 13 13 14 14 13 14 14 14 15 15 15
26 25 23 22 21 20 19 18 18 17 16 16 16 15 14 14 13 12 12 12 12 12 12 12 12 12 12 12 12 13 13 14 14 15 15 15 15 15 15 15 16 16 16
28 26 25 24 23 22 21 20 20 19 18 18 17 17 16 15 14 14 14 14 14 14 14 14 14 14 13 13 14 15 15 15 16 16 16 16 16 16 16 16 16 17 17
29 28 27 26 25 24 23 22 22 21 20 20 19 18 17 17 16 15 15 15 15 14 14 14 14 15 15 15 16 16 17 17 17 17 17 17 17 17 17 17 17 17 17
31 29 28 27 26 25 24 24 23 23 22 21 21 20 19 19 18 17 16 16 15 15 14 14 14 15 16 16 17 18 18 18 18 18 18 18 18 18 18 18 18 17 17
32 31 30 29 28 27 26 25 25 24 24 23 22 21 21 20 19 19 18 17 17 16 15 15 15 16 16 17 18 18 19 19 19 19 19 19 18 18 18 18 18 18 18
34 32 31 31 30 29 27 27 26 26 25 25 24 23 22 22 21 20 19 19 18 18 17 17 17 17 18 18 19 19 19 19 19 19 19 19 20 19 19 19 20 20 20
35 33 31 30 31 31 29 28 28 27 27 26 25 25 23 23 23 22 21 20 19 19 19 19 19 19 19 19 20 20 20 20 20 20 20 20 20 20 20 21 21 21 21
36 35 33 31 32 32 30 29 29 29 28 27 26 26 25 25 24 23 23 22 22 21 21 21 21 21 21 21 21 21 21 21 20 20 21 21 21 21 21 21 22 22 22
37 36 34 33 33 33 32 30 30 30 29 28 28 27 26 26 26 25 25 24 24 23 23 23 23 23 23 22 22 22 22 22 22 22 22 22 22 22 22 23 23 23 24
38 38 36 33 33 33 32 31 30 31 30 30 29 28 27 27 27 27 26 25 25 24 23 23 24 24 24 24 24 23 23 23 23 23 23 23 23 23 23 23 24 24 24
39 39 37 35 34 34 33 32 30 30 31 30 29 29 29 29 28 28 27 27 26 26 26 25 25 25 25 25 25 24 24 24 24 24 24 24 24 24 25 25 25 25 25
38 39 37 36 35 34 34 33 31 31 31 30 30 29 29 29 29 28 28 27 27 27 28 28 27 26 26 26 26 26 26 25 25 25 25 25 25 25 26 26 27 27 27
37 38 38 35 35 34 34 33 31 31 31 30 29 30 30 30 30 30 29 29 29 29 28 28 29 29 28 27 27 27 27 27 27 27 27 27 27 27 28 28 29 29 29
37 37 38 36 35 34 34 34 33 31 31 31 30 30 31 30 31 31 32 31 31 30 30 30 30 31 30 30 29 28 28 29 29 29 29 29 29 30 30 31 31 31 31
37 36 37 36 36 34 34 34 34 34 32 31 31 31 31 32 32 32 33 33 33 32 32 33 32 32 32 32 32 31 30 30 30 31 32 32 32 32 32 33 33 33 33
35 35 35 36 34 33 33 34 35 35 35 33 32 31 31 33 33 33 34 34 34 34 34 34 33 33 34 33 33 33 32 31 32 32 33 33 33 34 34 34 34 35 35
34 35 34 34 33 32 32 34 35 35 36 35 34 34 33 33 33 34 35 35 36 36 35 35 35 35 35 35 34 34 34 33 34 34 34 34 35 35 36 36 37 37 37
33 33 33 32 32 32 32 33 34 35 36 35 35 34 35 35 35 35 36 36 37 37 36 36 36 36 36 36 35 35 36 36 36 36 36 36 37 37 38 38 38 39 39
31 32 33 32 32 32 33 33 33 34 36 35 35 35 36 36 36 36 37 38 38 38 37 37 37 36 36 37 37 37 38 37 38 37 38 39 39 40 40 41 41 41 41
30 30 32 32 32 32 32 32 33 34 35 35 35 36 37 37 37 37 38 38 38 38 38 38 38 38 38 38 38 39 39 40 40 40 40 40 40 41 41 42 43 43 43
29 29 30 30 30 30 31 31 32 33 34 34 35 36 37 37 37 37 37 38 39 38 39 39 39 39 40 40 40 41 41 42 42 42 41 41 41 42 43 44 44 45 45
29 29 29 28 28 29 30 30 31 32 33 34 35 36 37 38 38 38 38 39 39 39 39 40 40 41 41 41 42 42 43 43 43 43 43 43 43 44 45 46 46 46 46
Wind_Direction
234 235 236 237 237 238 240 242 242 241 240 241 242 245 246 248 251 255 257 260 261 262 263 264 266 270 275 280 287 293 296 298 299 300 301 304 305 304 303 302 301 299 297
235 234 236 236 238 240 240 240 240 239 239 240 241 244 246 249 253 256 258 260 263 263 263 264 267 271 275 281 287 291 293 293 295 296 298 299 301 302 303 303 302 301 298
235 235 236 237 238 240 241 239 239 238 239 239 240 245 248 251 254 256 258 260 263 264 265 266 270 272 275 280 285 290 292 292 292 293 294 295 297 299 300 302 302 301 299
236 236 237 237 239 241 241 240 239 238 239 240 241 244 249 252 254 256 257 258 260 264 266 268 271 274 276 279 284 288 291 292 292 292 292 293 295 297 298 300 300 300 298
235 236 236 238 238 239 240 239 239 239 239 240 242 245 248 251 253 255 257 258 261 264 268 270 272 274 276 280 284 287 289 291 292 291 291 291 292 294 297 298 298 298 297
235 235 236 238 238 238 239 239 239 239 239 239 242 245 247 249 253 256 258 261 264 266 268 270 271 273 276 280 283 286 287 289 290 290 290 290 291 292 293 295 296 296 295
234 235 236 237 238 238 239 239 239 239 240 241 242 243 245 248 252 257 259 261 263 266 268 270 272 273 277 281 283 285 286 288 289 289 288 289 290 291 291 293 293 294 294
234 234 235 236 237 238 239 239 240 241 241 242 242 242 243 247 251 255 258 260 262 265 268 271 273 276 278 282 284 285 286 287 287 287 286 287 288 289 291 292 292 293 295
232 233 233 235 236 238 239 239 240 241 242 242 241 241 243 246 249 253 257 260 261 263 267 271 275 278 281 284 286 287 287 286 286 285 284 285 286 287 288 289 290 292 294
231 232 234 235 236 237 238 239 240 240 241 241 241 241 243 246 249 253 257 258 261 263 267 270 275 279 282 285 287 288 288 288 286 285 284 284 285 286 287 288 290 291 291
230 230 232 234 236 236 238 239 239 240 241 241 241 242 244 247 250 253 256 258 262 265 267 270 274 278 282 285 286 287 288 287 285 284 284 284 284 284 285 287 289 290 290
229 230 230 233 235 236 236 239 239 239 239 240 241 242 245 248 250 252 255 258 261 265 267 270 274 278 281 283 284 286 286 286 285 284 284 284 284 284 285 287 289 289 289
229 230 232 232 232 235 236 238 240 240 239 239 241 243 246 249 251 253 254 257 261 265 268 271 274 277 280 281 283 284 284 284 284 284 283 283 284 284 285 287 289 289 289
229 229 231 231 231 233 236 238 240 240 240 240 241 243 247 250 251 254 255 256 261 265 268 271 274 277 280 282 282 283 283 284 285 285 283 282 283 284 285 286 288 289 288
227 228 230 232 232 233 236 237 240 239 241 241 241 245 248 251 252 254 256 258 262 267 271 273 275 277 280 281 281 281 281 282 283 283 283 283 283 284 285 287 288 289 288
226 227 229 232 232 233 235 236 240 240 243 243 244 247 250 253 254 256 257 259 263 268 272 273 273 276 278 279 279 279 279 280 281 282 283 283 284 285 286 287 288 289 289
225 226 228 230 232 233 235 236 238 240 240 244 246 248 250 252 255 257 258 260 263 266 270 272 273 275 275 275 277 278 277 278 280 281 281 282 283 284 286 288 289 289 289
225 226 228 230 232 233 234 235 236 239 241 243 246 249 250 252 255 256 259 261 264 266 269 271 273 275 276 275 275 277 278 279 279 280 280 281 282 283 285 287 287 287 288
224 226 227 229 232 231 233 235 236 239 241 243 246 249 251 253 256 258 260 263 265 267 270 271 272 274 276 275 275 275 277 278 280 280 281 281 282 282 283 284 285 285 286
225 226 229 231 231 230 233 236 237 239 242 244 247 251 254 254 258 259 261 263 265 267 269 272 273 274 275 275 277 276 275 277 279 279 280 280 281 282 282 282 283 284 285
228 229 232 232 232 233 236 238 239 241 244 246 250 254 256 257 259 261 261 263 266 267 268 270 272 272 273 275 276 276 276 277 279 279 280 280 281 282 282 282 283 284 285
229 229 232 234 236 237 239 241 241 243 246 248 251 255 258 260 262 263 263 265 267 269 270 271 273 273 273 274 276 276 277 279 279 280 281 281 281 281 282 283 283 284 284
228 231 234 237 239 240 242 244 245 245 246 249 252 255 259 260 263 264 264 266 267 270 271 271 273 274 274 274 274 276 277 278 280 281 281 282 282 281 281 282 283 284 284
229 233 234 237 240 241 243 244 246 247 248 250 254 257 260 261 264 266 267 268 269 270 271 272 273 274 274 274 275 276 277 279 280 281 283 283 283 282 282 283 283 284 285
230 233 235 237 239 243 245 245 248 249 251 253 256 259 262 263 264 266 267 269 269 270 272 272 272 273 274 275 277 278 279 281 281 281 282 283 283 284 284 284 285 285 285
233 234 235 237 238 241 244 246 249 251 253 255 258 261 263 263 264 266 267 268 269 270 271 271 271 272 273 275 277 278 280 281 281 281 281 282 282 283 284 285 285 285 285